Terminal Aerodrome Forecast
Issued by NWS

Home | Current Version | Previous Version | Text Only | Print | Product List | Glossary On
Versions: 1 2 3 4 5 6 7 8 9 10 11 12 13 14 15 16 17 18 19 20 21 22 23 24 25 26 27 28 29 30 31 32 33 34 35 36 37 38 39 40 41 42 43 44 45 46 47 48 49 50
000
FTUS45 KCYS 070520
TAFLAR
TAF
KLAR 070520Z 0706/0806 32012KT P6SM VCSH OVC006
     FM071300 19013KT P6SM OVC015
     FM071700 12012KT P6SM VCTS BKN030CB
     FM080200 07010KT 4SM -RA BR OVC015=

USA.gov is the U.S. government's official web portal to all federal, state and local government web resources and services.